timestamp,surface_pressure_avg,surface_temp_avg,battery_voltage,lat,long
2022-01-31 00:09:00+00:00,321.988,2.45,12.57,47.84626,-54.09684
2022-01-31 00:19:00+00:00,327.9329,2.43,12.57,47.84626,-54.09684
2022-01-31 00:29:00+00:00,325.063,2.46,12.57,47.84626,-54.09684
2022-01-31 00:39:00+00:00,300.6447,2.48,12.57,47.84626,-54.09684
2022-01-31 00:49:00+00:00,300.5113,2.46,12.57,47.84626,-54.09684
2022-01-31 00:59:00+00:00,303.6829,2.45,12.57,47.84626,-54.09684
2022-01-31 01:09:00+00:00,280.8131,2.4,12.57,47.84626,-54.09684
2022-01-31 01:19:01+00:00,266.7064,2.42,12.49,47.84626,-54.09684
2022-01-31 01:29:01+00:00,275.7964,2.4,12.49,47.84626,-54.09684
2022-01-31 01:39:01+00:00,262.6981,2.39,12.49,47.84626,-54.09684
2022-01-31 01:49:01+00:00,230.8965,2.4,12.49,47.84626,-54.09684
2022-01-31 01:59:01+00:00,236.2898,2.4,12.49,47.84626,-54.09684
2022-01-31 02:09:01+00:00,249.688,2.3,12.49,47.84626,-54.09684
2022-01-31 02:19:00+00:00,228.3314,2.4,12.49,47.84626,-54.09684
2022-01-31 02:29:00+00:00,207.2765,2.4,12.49,47.84626,-54.09684
2022-01-31 02:39:00+00:00,215.0581,2.3,12.49,47.84626,-54.09684
2022-01-31 02:49:00+00:00,210.3781,2.37,12.49,47.84626,-54.09684
2022-01-31 02:59:00+00:00,187.4497,2.4,12.49,47.84626,-54.09684
2022-01-31 03:09:00+00:00,189.1364,2.29,12.49,47.84626,-54.09684
2022-01-31 03:19:00+00:00,193.8365,2.2,12.49,47.84626,-54.09684
2022-01-31 03:29:00+00:00,175.1231,2.2,12.49,47.84626,-54.09684
2022-01-31 03:39:00+00:00,185.3181,2.2,12.49,47.84626,-54.09684
2022-01-31 03:49:00+00:00,209.6031,2.37,12.49,47.84626,-54.09684
2022-01-31 03:59:00+00:00,184.9665,2.25,12.49,47.84626,-54.09684
2022-01-31 04:09:00+00:00,170.1798,2.3,12.49,47.84626,-54.09684
2022-01-31 04:19:00+00:00,196.9115,2.26,12.49,47.84626,-54.09684
2022-01-31 04:29:00+00:00,199.5398,2.4,12.49,47.84626,-54.09684
2022-01-31 04:39:00+00:00,180.1415,2.3,12.49,47.84626,-54.09684
2022-01-31 04:49:00+00:00,188.6114,2.24,12.49,47.84626,-54.09684
2022-01-31 04:59:00+00:00,203.7264,2.35,12.49,47.84626,-54.09684
2022-01-31 05:09:00+00:00,190.7964,2.2,12.49,47.84626,-54.09684
2022-01-31 05:19:00+00:00,184.4248,2.31,12.49,47.84626,-54.09684
2022-01-31 05:29:00+00:00,209.1665,2.36,12.49,47.84626,-54.09684
2022-01-31 05:39:00+00:00,223.3414,2.3,12.49,47.84626,-54.09684
2022-01-31 05:49:00+00:00,204.5665,2.39,12.49,47.84626,-54.09684
2022-01-31 05:59:00+00:00,199.2215,2.4,12.49,47.84626,-54.09684
2022-01-31 06:09:00+00:00,226.0631,2.2,12.49,47.84626,-54.09684
2022-01-31 06:19:01+00:00,226.7164,2.4,12.49,47.84626,-54.09684
2022-01-31 06:29:01+00:00,215.0398,2.4,12.49,47.84626,-54.09684
2022-01-31 06:39:01+00:00,226.7414,2.3,12.49,47.84626,-54.09684
2022-01-31 06:49:01+00:00,240.6481,2.37,12.49,47.84626,-54.09684
2022-01-31 06:59:01+00:00,238.9665,2.4,12.49,47.84626,-54.09684
2022-01-31 07:09:01+00:00,237.8181,2.4,12.49,47.84626,-54.09684
2022-01-31 07:19:01+00:00,251.6814,2.4,12.49,47.84626,-54.09684
2022-01-31 07:29:01+00:00,263.4547,2.4,12.49,47.84626,-54.09684
2022-01-31 07:39:01+00:00,261.4781,2.4,12.49,47.84626,-54.09684
2022-01-31 07:49:01+00:00,266.8531,2.4,12.49,47.84626,-54.09684
2022-01-31 07:59:01+00:00,274.3748,2.37,12.49,47.84626,-54.09684
2022-01-31 08:09:01+00:00,281.5748,2.4,12.49,47.84626,-54.09684
2022-01-31 08:19:01+00:00,286.6614,2.4,12.49,47.84626,-54.09684
2022-01-31 08:29:01+00:00,294.6747,2.4,12.49,47.84626,-54.09684
2022-01-31 08:39:01+00:00,310.0196,2.3,12.49,47.84626,-54.09684
2022-01-31 08:49:01+00:00,322.4946,2.33,12.49,47.84626,-54.09684
2022-01-31 08:59:01+00:00,327.6047,2.4,12.49,47.84626,-54.09684
2022-01-31 09:09:01+00:00,332.3146,2.4,12.49,47.84626,-54.09684
2022-01-31 09:19:00+00:00,341.7162,2.4,12.49,47.84626,-54.09684
2022-01-31 09:29:00+00:00,351.7813,2.4,12.49,47.84626,-54.09684
2022-01-31 09:39:00+00:00,354.0946,2.4,12.49,47.84626,-54.09684
2022-01-31 09:49:00+00:00,361.5497,2.4,12.49,47.84626,-54.09684
2022-01-31 09:59:00+00:00,368.6862,2.38,12.49,47.84626,-54.09684
2022-01-31 10:09:00+00:00,369.2013,2.4,12.49,47.84626,-54.09684
2022-01-31 10:19:00+00:00,372.0963,2.4,12.49,47.84626,-54.09684
2022-01-31 10:29:00+00:00,379.1946,2.4,12.49,47.84626,-54.09684
2022-01-31 10:39:00+00:00,390.6212,2.4,12.49,47.84626,-54.09684
2022-01-31 10:49:00+00:00,385.7946,2.4,12.49,47.84626,-54.09684
2022-01-31 10:59:00+00:00,383.1696,2.4,12.49,47.84626,-54.09684
2022-01-31 11:09:00+00:00,397.7929,2.4,12.49,47.84626,-54.09684
2022-01-31 11:19:00+00:00,390.8296,2.4,12.49,47.84626,-54.09684
2022-01-31 11:29:00+00:00,378.2212,2.4,12.49,47.84626,-54.09684
2022-01-31 11:39:00+00:00,389.458,2.4,12.49,47.84626,-54.09684
2022-01-31 11:49:00+00:00,400.2979,2.4,12.49,47.84626,-54.09684
2022-01-31 11:59:00+00:00,384.008,2.4,12.49,47.84626,-54.09684
2022-01-31 12:09:00+00:00,375.3029,2.4,12.49,47.84626,-54.09684
2022-01-31 12:19:00+00:00,394.5511,2.4,12.65,47.84626,-54.09684
2022-01-31 12:29:00+00:00,389.0563,2.4,12.65,47.84626,-54.09684
2022-01-31 12:39:00+00:00,365.0162,2.39,12.65,47.84626,-54.09684
2022-01-31 12:49:00+00:00,367.6296,2.39,12.65,47.84626,-54.09684
2022-01-31 12:59:00+00:00,374.7063,2.39,12.65,47.84626,-54.09684
2022-01-31 13:09:00+00:00,354.3846,2.39,12.65,47.84626,-54.09684
2022-01-31 13:19:00+00:00,329.3496,2.39,12.73,47.84626,-54.09684
2022-01-31 13:29:00+00:00,329.4446,2.39,12.73,47.84626,-54.09684
2022-01-31 13:39:00+00:00,331.5296,2.39,12.73,47.84626,-54.09684
2022-01-31 13:49:00+00:00,313.2547,2.36,12.73,47.84626,-54.09684
2022-01-31 13:59:00+00:00,301.5581,2.31,12.73,47.84626,-54.09684
2022-01-31 14:09:00+00:00,303.608,2.3,12.73,47.84626,-54.09684
2022-01-31 14:19:01+00:00,291.573,2.3,13.05,47.84626,-54.09684
2022-01-31 14:29:01+00:00,273.7397,2.3,13.05,47.84626,-54.09684
2022-01-31 14:39:01+00:00,273.6913,2.3,13.05,47.84626,-54.09684
2022-01-31 14:49:01+00:00,270.7997,2.25,13.05,47.84626,-54.09684
2022-01-31 14:59:01+00:00,253.0281,2.3,13.05,47.84626,-54.09684
2022-01-31 15:09:01+00:00,236.6597,2.3,13.05,47.84626,-54.09684
2022-01-31 15:19:01+00:00,238.5897,2.3,13.05,47.84626,-54.09684
2022-01-31 15:29:01+00:00,238.0731,2.3,13.05,47.84626,-54.09684
2022-01-31 15:39:01+00:00,221.1414,2.3,13.05,47.84626,-54.09684
2022-01-31 15:49:01+00:00,211.7615,2.3,13.05,47.84626,-54.09684
2022-01-31 15:59:01+00:00,221.3581,2.29,13.05,47.84626,-54.09684
2022-01-31 16:09:01+00:00,219.2098,2.3,13.05,47.84626,-54.09684
2022-01-31 16:19:01+00:00,206.8848,2.24,13.21,47.84626,-54.09684
2022-01-31 16:29:01+00:00,203.6014,2.24,13.21,47.84626,-54.09684
2022-01-31 16:39:01+00:00,206.1548,2.28,13.21,47.84626,-54.09684
2022-01-31 16:49:01+00:00,205.7781,2.2,13.21,47.84626,-54.09684
2022-01-31 16:59:01+00:00,201.8715,2.2,13.21,47.84626,-54.09684
2022-01-31 17:09:01+00:00,203.3531,2.1,13.21,47.84626,-54.09684
2022-01-31 17:19:01+00:00,205.4981,2.1,13.05,47.84626,-54.09684
2022-01-31 17:29:01+00:00,200.0715,2.04,13.05,47.84626,-54.09684
2022-01-31 17:39:01+00:00,196.9048,1.9,13.05,47.84626,-54.09684
2022-01-31 17:49:01+00:00,199.5931,1.98,13.05,47.84626,-54.09684
2022-01-31 17:59:01+00:00,202.3031,2.03,13.05,47.84626,-54.09684
2022-01-31 18:09:01+00:00,204.9114,1.96,13.05,47.84626,-54.09684
2022-01-31 18:19:00+00:00,201.0514,2.1,13.05,47.84626,-54.09684
2022-01-31 18:29:00+00:00,203.0181,2.1,13.05,47.84626,-54.09684
2022-01-31 18:39:00+00:00,213.8865,2.1,13.05,47.84626,-54.09684
2022-01-31 18:49:00+00:00,214.6448,2.14,13.05,47.84626,-54.09684
2022-01-31 18:59:00+00:00,207.7415,2.15,13.05,47.84626,-54.09684
2022-01-31 19:09:00+00:00,210.9897,2.11,13.05,47.84626,-54.09684
2022-01-31 19:19:00+00:00,218.0665,2.16,12.89,47.84626,-54.09684
2022-01-31 19:29:00+00:00,221.8464,2.19,12.89,47.84626,-54.09684
2022-01-31 19:39:00+00:00,229.4598,2.16,12.89,47.84626,-54.09684
2022-01-31 19:49:00+00:00,234.6815,2.15,12.89,47.84626,-54.09684
2022-01-31 19:59:00+00:00,243.3664,2.17,12.89,47.84626,-54.09684
2022-01-31 20:09:00+00:00,251.3814,2.18,12.89,47.84626,-54.09684
2022-01-31 20:19:01+00:00,259.9814,2.2,12.73,47.84626,-54.09684
2022-01-31 20:29:01+00:00,269.0147,2.19,12.73,47.84626,-54.09684
2022-01-31 20:39:01+00:00,272.1681,2.2,12.73,47.84626,-54.09684
2022-01-31 20:49:01+00:00,279.1281,2.2,12.73,47.84626,-54.09684
2022-01-31 20:59:01+00:00,290.123,2.2,12.73,47.84626,-54.09684
2022-01-31 21:09:01+00:00,297.6063,2.2,12.73,47.84626,-54.09684
2022-01-31 21:19:01+00:00,306.1647,2.29,12.65,47.84626,-54.09684
2022-01-31 21:29:01+00:00,316.8564,2.3,12.65,47.84626,-54.09684
2022-01-31 21:39:01+00:00,322.818,2.3,12.65,47.84626,-54.09684
2022-01-31 21:49:01+00:00,326.6946,2.32,12.65,47.84626,-54.09684
2022-01-31 21:59:01+00:00,335.3064,2.33,12.65,47.84626,-54.09684
2022-01-31 22:09:01+00:00,341.8979,2.33,12.65,47.84626,-54.09684
2022-01-31 22:19:01+00:00,345.0295,2.35,12.57,47.84626,-54.09684
2022-01-31 22:29:01+00:00,351.223,2.32,12.57,47.84626,-54.09684
2022-01-31 22:39:01+00:00,357.1213,2.3,12.57,47.84626,-54.09684
2022-01-31 22:49:01+00:00,352.36300000000006,2.32,12.57,47.84626,-54.09684
2022-01-31 22:59:01+00:00,351.1462,2.3,12.57,47.84626,-54.09684
2022-01-31 23:09:01+00:00,361.3696,2.3,12.57,47.84626,-54.09684
2022-01-31 23:19:00+00:00,369.0063,2.32,12.57,47.84626,-54.09684
2022-01-31 23:29:00+00:00,362.5428,2.3,12.57,47.84626,-54.09684
2022-01-31 23:39:00+00:00,358.5197,2.3,12.57,47.84626,-54.09684
2022-01-31 23:49:00+00:00,366.848,2.3,12.57,47.84626,-54.09684
2022-01-31 23:59:00+00:00,362.208,2.3,12.57,47.84626,-54.09684
